www.pogodaiklimat.ru
Время
и дата
18:57 30.12
19:57 30.12
20:57 30.12
21:57 30.12
22:57 30.12
23:44 30.12
23:57 30.12
00:10 31.12
00:21 31.12
00:41 31.12
00:50 31.12
00:57 31.12
01:02 31.12
01:17 31.12
01:52 31.12
01:57 31.12
02:57 31.12
03:38 31.12
03:57 31.12
04:17 31.12
04:55 31.12
04:57 31.12
05:08 31.12
05:11 31.12
05:23 31.12
05:27 31.12
05:36 31.12
05:46 31.12
05:57 31.12
06:10 31.12
06:54 31.12
06:57 31.12
07:45 31.12
07:55 31.12
07:57 31.12
08:57 31.12
09:57 31.12
10:38 31.12
10:57 31.12
11:19 31.12
11:27 31.12
11:40 31.12
11:57 31.12
12:57 31.12
13:57 31.12
14:18 31.12
14:57 31.12
15:57 31.12
Ветер
(напр.,м/с)
Видим. Явления Облачность Т
(С)
Тd
(С)
f
(%)
Тe
(С)
Тes
(С)
Комфортность P
(гПа)
Po
(гПа)
Тmin
(С)
Tmax
(С)
R
(мм)
R24
(мм)
S
(см)
ЮВ 2 11 км 8/0 2100 м
[Ac]
+13.9 +11.7 87 +12 +12 1011.2 1003.5
В 2 11 км 10/10 1020 м +13.3 +11.1 87 +12 +12 1011.0 1003.5
В 2 11 км 8/8 1500 м +13.9 +11.1 83 +12 +12 1010.6 1003.2
В 1 11 км 8/8 1140 м +13.3 +11.1 87 +12 +12 1010.6 1003.2
В 1 11 км 8/8 1500 м +13.9 +11.1 83 +13 +13 1010.5 1002.9 +13.3 +15.6
В 1 16 км 10/10 360 м +13.9 +11.7 87 +13 +13 1002.9
ЮВ 1 16 км 10/10 360 м +13.9 +11.7 87 +13 +13 1010.2 1002.5
В 2 6 км дымка 10/10 270 м +13.3 +12.2 93 +12 +12 1002.5
В 1 4 км слабый дождь, дымка 10/10 270 м +13.3 +12.2 93 +12 +12 1002.5
В 1 5 км слабый дождь, дымка 10/10 210 м +13.3 +12.2 93 +13 +13 1001.5
СВ 1 4 км слабый дождь, дымка 10/10 150 м +13.3 +12.2 93 +12 +12 1001.2
В 2 3 км слабый дождь, дымка 10/10 150 м +13.3 +12.2 93 +12 +12 1008.6 1001.2
В 2 5 км слабый дождь, дымка 10/10 90 м +13.3 +12.2 93 +11 +11 1000.8
В 2 8 км дымка 10/10 90 м +12.8 +12.2 96 +11 +11 1000.8
В 1 11 км 10/10 480 м +13.0 +12.0 94 +12 +12 1001.2
В 1 16 км 10/10 480 м +12.8 +12.2 96 +11 +11 1008.7 1001.2 1.8
СВ 1 16 км 10/10 570 м +13.3 +12.2 93 +12 +12 1008.2 1000.8
С 1 16 км слабый дождь 10/10 420 м +12.8 +12.2 96 +12 +12 1000.2
СВ 1 6 км слабый дождь, дымка 10/10 420 м +12.8 +11.7 93 +12 +12 1007.2 999.8
СВ 1 6 км дымка 10/10 480 м +12.8 +12.2 96 +11 +11 998.8
С 1 11 км 10/10 90 м +13.0 +12.0 94 +12 +12 998.5
С 1 10 км дымка 10/10 660 м +12.8 +11.7 93 +11 +11 1005.9 998.5 +12.8 +13.9 2.3 2.3
С 2 5 км дымка 10/10 90 м +12.8 +12.2 96 +11 +11 998.5
С 2 4 км дымка 10/10 90 м +12.8 +12.2 96 +11 +11 998.5
С 1 5 км дымка 10/10 90 м +12.8 +11.7 93 +11 +11 998.5
С 1 6 км дымка 10/10 90 м +12.8 +11.7 93 +11 +11 998.8
С 1 8 км дымка 10/10 90 м +12.8 +12.2 96 +12 +12 998.8
С 1 4 км слабый дождь, дымка 10/10 90 м +12.8 +12.2 96 +12 +12 999.2
СВ 2 3 км слабый дождь, дымка 10/10 90 м +12.8 +12.2 96 +10 +10 1005.9 998.5
СВ 2 6 км дымка 10/10 90 м +12.8 +11.7 93 +11 +11 998.1
СВ 1 16 км 10/10 120 м +13.0 +12.0 94 +12 +12 998.5
СВ 1 16 км 10/10 120 м +12.8 +11.7 93 +11 +11 1005.9 998.5
СВ 1 6 км дымка 10/10 120 м +12.8 +11.7 93 +11 +11 998.5
СВ 2 4 км дымка 10/10 120 м +12.0 +12.0 100 +10 +10 998.5
СВ 2 4 км дымка 10/10 120 м +12.2 +11.7 97 +10 +10 1006.0 998.5 0.5
СВ 2 16 км 10/8 120 м
[Ac]
+12.8 +11.7 93 +11 +11 1005.9 998.5
СВ 1 16 км 10/10 300 м +13.3 +11.1 87 +13 +13 1006.8 999.2
СВ 1 16 км 10/8 210 м
[Ac]
+14.4 +12.2 87 +14 +14 999.2
СВ 1 16 км 10/8 240 м
[Ac]
+14.4 +11.7 84 +14 +14 1006.4 998.8 +12.2 +14.4 0.5
В 1 16 км 10/10 300 м +14.4 +12.2 87 +13 +13 998.5
В 1 16 км 10/8 300 м
[Ac]
+14.4 +11.7 84 +13 +14 998.5
В 1 16 км 8/5 300 м
[Ac]
+15.0 +11.7 81 +15 +17 998.1
В 1 16 км 8/2 360 м
[Ac]
+15.0 +11.7 81 +14 +17 1005.2 997.8
нст 1 16 км 10/8 420 м
[Ac]
+15.6 +12.2 80 +16 +16 1003.2 995.8
СЗ 2 16 км 10/10 540 м +16.1 +11.7 75 +15 +15 1002.2 994.8
СЗ 2 16 км 5/5 690 м +16.7 +11.7 72 +16 +18 994.5
З 1 16 км 2/2 750 м +17.2 +11.1 67 +18 +22 1002.3 994.8
Ю 1 16 км ясно +16.7 +11.7 72 +16 +20 1002.4 995.1
Местоположение метеостанции Yuma International Airport: широта 32.6594 долгота -114.5931 высота над уровнем моря 63 м.
В архиве по умолчанию представлена погода в Юме за последние 1-2 суток. Обновление информации о фактической погоде в базе происходит ежечасно! Архивные данные за месяц целиком и за предыдущие месяцы Вы можете получить, выбрав интересующий диапазон дат из раскрывающегося списка и нажав кнопку "Ввод!".
Внимание! Архив погоды МЕТАР в базе сайта по станциям, не включенным в климатический монитор, хранится не более 60 дней. Нет смысла пытаться выбрать более раннюю дату.
*Определитесь, кто Вы:
Внимание! Время в таблицах - местное (без учета летнего времени). Для получения всемирного времени необходимо вычесть поправку, которая равна -7 ч.
Смотрите также архив погоды в соседних городах и на ближайших метеорологических станциях:
Партнеры нашего сайта:      
Пояснения к столбцам:
  • Ветер - указаны скорость ветра в м/с - средняя за 10 мин, порывы в срок и между сроками (в фигурных скобках) и направление, откуда дует ветер: С - северный,
  • СВ - северо-восточный, В - восточный, ЮВ - юго-восточный, Ю - южный, ЮЗ - юго-западный, З - западный, СЗ - северо-западный.
  • Видимость - горизонтальная дальность видимости в метрах или километрах. При видимости от 1 до 10 км при отсутствии осадков обычно наблюдается дымка, при ухудшении видимости до 1 км и менее - туман. В сухую погоду видимость может ухудшаться дымом, пылью или мглою.
  • Явления - указаны атмосферные явления, наблюдавшиеся в срок или в последний час перед сроком; фигурными скобками обозначены явления, наблюдавшиеся между сроками (за 1-3 часа до срока); квадратными скобками обозначены град или гололедные отложения с указанием их диаметра в мм.
  • Облачность - указаны через наклонную черту общая и нижняя облачность в баллах и высота нижней границы облаков в метрах; квадратными скобками обозначены формы облаков: Ci - перистые, Cs - перисто-слоистые, Cc - перисто-кучевые, Ac - высококучевые, As - высокослоистые, Sc - слоисто-кучевые, Ns - слоисто-дождевые, Cu - кучевые, Cb - кучево-дождевые. Подробнее классификацию облаков см. в Атласе облаков (PDF).
  • T - Температура воздуха - температура, измеренная на высоте 2 м над землей.
  • Td - Температура точки росы - температура, при понижении до которой содержащийся в воздухе водяной пар достигнет насыщения.
  • f - Относительная влажность воздуха - влажноcть воздуха, измеренная на высоте 2 м над землей.
  • Te - Эффективная температура - температура, которую ощущает одетый по сезону человек в тени. Характеристика душности погоды. При расчете учитывается влияние влажности воздуха и скорости ветра на теплоощущения человека.
  • Tes - Эффективная температура на солнце - температура, которую ощущает человек, с поправкой на солнечный нагрев. Характеристика знойности погоды. Зависит от высоты солнца над горизонтом, облачности и скорости ветра. Ночью, в пасмурную погоду, а также при ветре 12 м/с и более поправка равна нулю.
  • P - Атмосферное давление - приведенное к уровню моря атмосферное давление.
  • Po - Атмосферное давление - измеренное на уровне метеостанции атмосферное давление.
  • Tmin - Минимальная температура - минимум температуры воздуха на высоте 2 м над землей.
  • Tmax - Максимальная температура - максимум температуры воздуха на высоте 2 м над землей.
  • R - Количество осадков - Количество выпавших осадков за период времени, мм. При наведении курсора мыши на число - период времени, за который выпало указанное количество осадков.
  • R24 - Количество осадков - Количество выпавших осадков за 24 часа, мм.
  • S - Снежный покров - Высота снежного покрова, см. При наведении курсора мыши на число - состояние снежного покрова и степень покрытия местности в баллах.